FW2284 Weather Reports


time (UTC)temp
C
wind
direction
speed
KPH
gust
KPH
rain 1hr
cm
rain 24hr
cm
rain mn
cm
humidity
%
barometer
mb
20260510224541 19 84 0.0 11.3 0.00 0.33 0.03 38 1019.5
20260510223053 20 19 0.0 12.9 0.00 0.33 0.03 36 1019.4
20260510221539 20 343 4.8 14.5 0.00 0.33 0.03 41 1019.2
20260510220039 21 316 8.0 12.9 0.00 0.33 0.03 35 1019.3
20260510214537 20 18 4.8 11.3 0.00 0.33 0.03 36 1019.2
20260510213038 20 339 0.0 9.7 0.00 0.33 0.03 39 1019.3
20260510211536 20 353 1.6 8.0 0.00 0.33 0.03 38 1019.4
20260510210035 20 39 4.8 11.3 0.00 0.33 0.03 37 1019.6
20260510204535 20 333 1.6 9.7 0.00 0.33 0.03 41 1019.8
20260510203034 19 323 4.8 11.3 0.00 0.33 0.03 37 1019.6
20260510201535 20 286 8.0 14.5 0.00 0.33 0.03 35 1019.5
20260510200034 20 78 1.6 9.7 0.00 0.33 0.03 40 1019.6
20260510194531 19 324 4.8 22.5 0.00 0.33 0.03 38 1019.7
20260510193031 20 322 1.6 14.5 0.00 0.33 0.03 41 1019.7
20260510191528 19 340 3.2 9.7 0.00 0.33 0.03 43 1019.7
20260510190028 17 11 1.6 8.0 0.00 0.33 0.03 44 1019.6
20260510184526 17 359 3.2 16.1 0.00 0.33 0.03 45 1019.5
20260510183028 18 333 4.8 14.5 0.00 0.33 0.03 40 1019.3
20260510181524 19 318 4.8 11.3 0.00 0.33 0.03 41 1019.3
20260510180021 18 25 3.2 8.0 0.00 0.33 0.03 49 1019.3
20260510174520 17 70 1.6 12.9 0.00 0.33 0.03 52 1019.5
20260510173018 16 341 0.0 11.3 0.00 0.33 0.03 54 1019.5
20260510171518 17 330 1.6 19.3 0.00 0.33 0.03 50 1019.7
20260510170021 17 72 3.2 24.1 0.00 0.33 0.03 49 1019.7
20260510164514 16 4 3.2 6.4 0.00 0.33 0.03 54 1019.9
20260510163013 16 334 0.0 4.8 0.00 0.33 0.03 56 1019.9
20260510161517 16 327 1.6 8.0 0.00 0.33 0.03 53 1019.9
20260510160012 16 348 1.6 11.3 0.00 0.33 0.03 51 1020.1
20260510154508 16 22 3.2 9.7 0.00 0.33 0.03 66 1020.1
20260510153012 15 359 4.8 12.9 0.00 0.33 0.03 60 1019.8
20260510151503 15 24 3.2 12.9 0.00 0.33 0.03 61 1019.4
20260510150002 15 321 1.6 14.5 0.00 0.33 0.03 58 1019.2
20260510144501 15 358 3.2 11.3 0.00 0.33 0.03 59 1019.2
20260510143059 15 343 4.8 14.5 0.00 0.33 0.03 58 1019.0
20260510141557 15 316 1.6 14.5 0.00 0.33 0.03 63 1018.6
20260510140054 15 341 3.2 9.7 0.00 0.33 0.03 66 1018.0
20260510134556 14 4 3.2 6.4 0.00 0.33 0.03 67 1018.2
20260510133051 13 330 4.8 9.7 0.00 0.33 0.03 68 1018.2
20260510131549 13 331 3.2 9.7 0.00 0.33 0.03 71 1018.3
20260510130051 13 322 1.6 9.7 0.00 0.33 0.03 72 1018.2
20260510124558 12 330 3.2 9.7 0.00 0.33 0.03 74 1017.9
20260510123044 12 25 1.6 8.0 0.00 0.33 0.03 81 1017.5
20260510121542 11 342 1.6 8.0 0.00 0.33 0.03 85 1017.2
20260510120039 11 356 1.6 6.4 0.00 0.33 0.03 86 1017.1
20260510114537 11 340 1.6 6.4 0.00 0.33 0.03 88 1016.8
20260510113038 11 344 1.6 6.4 0.00 0.33 0.03 90 1016.6
20260510111539 11 360 1.6 6.4 0.00 0.33 0.03 91 1016.2
20260510110042 11 342 3.2 6.4 0.00 0.33 0.03 89 1016.0
20260510104533 11 356 3.2 8.0 0.00 0.33 0.03 89 1015.5
20260510103031 11 14 0.0 8.0 0.00 0.33 0.03 92 1015.4
20260510101534 12 330 1.6 4.8 0.00 0.33 0.03 92 1015.0
20260510100026 12 11 0.0 4.8 0.00 0.33 0.03 93 1014.7
20260510094526 12 332 1.6 4.8 0.00 0.33 0.03 93 1014.7
20260510093023 12 359 1.6 3.2 0.00 0.33 0.03 93 1014.6
20260510091528 12 328 1.6 4.8 0.03 0.33 0.03 94 1014.5
20260510090026 12 304 1.6 3.2 0.03 0.33 0.03 95 1014.3
20260510084519 12 273 0.0 0.0 0.03 0.33 0.03 95 1014.1
20260510083015 13 326 0.0 0.0 0.03 0.33 0.03 93 1013.8
20260510081513 13 333 0.0 3.2 0.00 0.30 0.00 94 1013.4
20260510080012 13 308 0.0 0.0 0.00 0.30 0.00 94 1013.2
20260510074510 13 326 1.6 3.2 0.00 0.30 0.00 94 1012.9
20260510073010 14 347 0.0 6.4 0.00 0.30 0.00 94 1012.9
20260510071506 14 350 3.2 8.0 0.00 0.30 0.00 95 1012.7
20260510070009 14 332 3.2 8.0 0.00 0.30 0.00 94 1012.8
20260510064517 14 347 3.2 8.0 0.00 0.30 0.00 94 1012.8
20260510063003 14 323 1.6 4.8 0.00 0.30 0.00 94 1012.7
20260510061508 14 349 0.0 4.8 0.00 0.30 0.00 94 1012.6
20260510060002 15 14 4.8 12.9 0.00 0.30 0.00 94 1012.8
20260510054558 15 359 4.8 16.1 0.00 0.30 0.00 94 1012.7
20260510053054 15 330 1.6 6.4 0.00 0.30 0.00 93 1012.1
20260510051556 15 352 3.2 9.7 0.03 0.30 0.00 93 1012.3
20260510050051 15 322 9.7 19.3 0.10 0.30 0.00 92 1012.4
20260510044550 15 180 3.2 8.0 0.13 0.30 0.30 90 1011.2
20260510043049 15 133 3.2 6.4 0.13 0.28 0.28 92 1011.9
20260510041551 15 97 0.0 3.2 0.18 0.28 0.28 92 1012.1
20260510040046 15 332 1.6 8.0 0.18 0.25 0.20 91 1012.3
20260510034549 15 1 1.6 9.7 0.18 0.23 0.18 90 1011.8
20260510033053 16 11 3.2 16.1 0.15 0.20 0.15 89 1012.3
20260510031544 16 333 8.0 32.2 0.08 0.13 0.08 87 1012.3
20260510030042 17 333 14.5 37.0 0.03 0.61 0.03 79 1012.0
20260510024539 18 236 0.0 0.0 0.00 0.58 0.00 66 1009.7
20260510023039 18 236 0.0 0.0 0.00 0.58 0.00 69 1009.3
20260510021539 17 236 0.0 0.0 0.00 0.58 0.00 74 1009.1
20260510020038 17 236 0.0 0.0 0.00 0.89 0.00 75 1009.0
20260510014538 17 236 0.0 0.0 0.00 0.89 0.00 76 1008.5
20260510013038 18 236 0.0 0.0 0.00 0.89 0.00 70 1008.3
20260510011536 20 244 0.0 0.0 0.00 0.89 0.00 67 1008.4
20260510010039 21 243 0.0 0.0 0.00 0.89 0.00 59 1008.4
20260510004534 23 244 0.0 0.0 0.00 0.89 0.00 53 1008.2
20260510003033 26 243 0.0 0.0 0.00 0.89 0.00 45 1008.1
20260510001531 27 243 0.0 0.0 0.00 0.89 0.00 38 1008.0
20260510000035 26 231 0.0 4.8 0.00 0.91 0.00 39 1008.0
20260509234539 26 244 0.0 4.8 0.00 0.91 0.00 38 1007.9
20260509233027 27 297 0.0 6.4 0.00 0.91 0.00 38 1007.9
20260509231526 26 291 3.2 6.4 0.00 0.91 0.00 37 1007.9